Regional Weather Roundup
Issued by NWS

Home | Current Version | Previous Version | Graphics & Text | Print | Product List | Glossary On
Versions: 1 2 3 4 5 6 7 8 9 10 11 12 13 14 15 16 17 18 19 20 21 22 23 24 25 26 27 28 29 30 31 32 33 34 35 36 37 38 39 40 41 42 43 44 45 46 47 48 49 50
000
ASUS45 KBOU 020407
RWRCO

WEATHER ROUNDUP FOR COLORADO
NATIONAL WEATHER SERVICE DENVER/BOULDER CO
1000 PM MDT MON SEP 01 2014

NOTE: "FAIR" INDICATES FEW OR NO CLOUDS BELOW 12000 FEET WITH NO
SIGNIFICANT WEATHER AND/OR OBSTRUCTIONS TO VISIBILITY.

COZ001>005-013-030-031-020500-
...NORTHWEST COLORADO...

CITY           SKY/WX    TMP DP  RH WIND       PRES   REMARKS
CRAIG          CLEAR     51  41  68 CALM      30.17R
HAYDEN         CLEAR     55  34  44 S7        30.19R
MEEKER         CLEAR     54  39  57 VRB5      30.19R
MOUNT WERNER   NOT AVBL
STEAMBOAT SPGS CLEAR     53  37  55 E5        30.22R
WALDEN         CLEAR     50  32  50 S5        30.29R
$$

COZ006>008-011-020500-
...WEST CENTRAL VALLEYS...

CITY           SKY/WX    TMP DP  RH WIND       PRES   REMARKS
GRAND JUNCTION CLEAR     68  39  34 E6        30.03R
MONTROSE       CLEAR     64  40  41 SE9       30.15R
EAGLE          CLEAR     57  39  51 E7        30.23R
RIFLE          CLEAR     61  41  47 SE7       30.12R
DELTA          CLEAR     67  37  33 SW6       30.09R
NUCLA          CLEAR     66  34  30 E9        30.17R
$$

COZ017>023-064>068-020500-
...SOUTHWEST COLORADO...

CITY           SKY/WX    TMP DP  RH WIND       PRES   REMARKS
DURANGO        CLEAR     65  31  28 CALM      30.18R
CORTEZ         CLEAR     62  38  40 E7        30.13R
PAGOSA SPRINGS CLEAR     58  30  34 NE3       30.26R
TELLURIDE      CLEAR     57  30  35 SE6       30.38R
WOLF CREEK PAS CLEAR     46  28  49 SW8       30.57R
$$

COZ009-010-012-014-032>034-037-058>063-020500-
...CENTRAL COLORADO...

CITY           SKY/WX    TMP DP  RH WIND       PRES   REMARKS
ASPEN          CLEAR     54  35  48 S8        30.28R
BUENA VISTA    CLEAR     53  28  37 W5        30.28R
COPPER MTN     CLEAR     46  28  49 W15       30.56R
BERTHOUD PASS  FAIR      36  34  93 NW21      30.57S
COTTONWOOD PAS CLEAR     57  23  26 CALM      30.41S
GUNNISON       CLEAR     55  34  44 CALM      30.30R
KREMMLING      CLEAR     50  32  50 S3        30.28R
LEADVILLE      CLEAR     45  29  53 NE7       30.41R
MONARCH PASS   CLEAR     46  28  49 W26       30.65R
SALIDA         CLEAR     60  33  36 W6        30.32R
SUNLIGHT       CLEAR     52  28  40 CALM      30.49R
WILKERSON PASS NOT AVBL
$$

COZ069>075-020500-
...SAN LUIS VALLEY/SANGRE DE CRISTO MOUNTAINS...

CITY           SKY/WX    TMP DP  RH WIND       PRES   REMARKS
ALAMOSA        PTCLDY    67  30  25 N6        30.22R
LA VETA PASS   NOT AVBL
SAGUACHE       NOT AVBL
$$

COZ035-036-038>040-020500-
...NORTHERN COLORADO FRONT RANGE...

CITY           SKY/WX    TMP DP  RH WIND       PRES   REMARKS
DENVER INTL AP PTCLDY    60  45  57 SE7       30.10R
DMNS CITY PARK   N/A     63  45  51 S1        30.11R
AURORA         PTCLDY    61  44  52 SE9       30.13R
FRONT RANGE AP CLEAR     63  46  55 SE6       30.11R
ERIE MUNI ARPT CLEAR     60  47  60 CALM      30.10R
BOULDER MUN AP CLEAR     64  45  48 SW3       30.11R
CENTENNIAL     PTCLDY    64  48  56 W6        30.13R
BROOMFIELD     NOT AVBL
FORT COLLINS   CLEAR     63  46  55 NE16      30.12R
LONGMONT       CLEAR     62  47  58 W6        30.11R
$$

COZ041-046-047-076>085-087-088-020500-
...PIKES PEAK/PALMER DIVIDE AND SOUTHERN FOOTHILLS...

CITY           SKY/WX    TMP DP  RH WIND       PRES   REMARKS
COLO. SPRINGS  PTCLDY    61  46  57 NE5       30.18R
A. F. ACADEMY  CLEAR     55  47  74 N7        30.19R
ELLICOTT       CLEAR     61  44  53 E9        30.15R
FALCON         PTCLDY    58  47  66 CALM      30.22R
FORT CARSON    CLEAR     64  44  48 NE1       30.14R
LIMON          PTCLDY    56  46  69 CALM      30.11R
MONUMENT HILL  CLEAR     52  45  76 NE5       30.21R
TRINIDAD       CLEAR     65  45  48 W10       30.03R
$$

COZ042>045-048>051-090-091-020500-
...NORTHEAST COLORADO...

CITY           SKY/WX    TMP DP  RH WIND       PRES   REMARKS
GREELEY ARPT   CLEAR     61  43  51 NE10G16   30.10R
AKRON          PTCLDY    66  48  52 MISG      30.05R
BURLINGTON     PTCLDY    65  49  56 S9        30.03R
WRAY             N/A     69  49  49 SE5       29.99R
STERLING       PTCLDY    63  52  67 E9        30.06R
HOLYOKE        PTCLDY    61  52  72 N15G22    30.06R
FORT MORGAN    PTCLDY    62  43  50 N18G24    30.08R
$$

COZ086-089-092>099-020500-
...SOUTHEAST COLORADO...

CITY           SKY/WX    TMP DP  RH WIND       PRES   REMARKS
PUEBLO         CLEAR     73  45  36 NE13      30.03R
LA JUNTA       CLEAR     72  53  51 E14       29.99R
LAMAR          CLEAR     70  55  59 E9        29.97R
SPRINGFIELD      N/A     69  61  75 E12       29.99R
$$


USA.gov is the U.S. government's official web portal to all federal, state and local government web resources and services.